| time (UTC) | temp C | wind direction | speed KPH | gust KPH | rain 1hr cm | rain 24hr cm | rain mn cm | humidity % | barometer mb |
| 20260508153011 | 7 | 82 | 1.6 | 4.8 | 0.00 | 0.08 | 0.03 | 95 | 1020.9 |
| 20260508152513 | 7 | 63 | 0.0 | 6.4 | 0.00 | 0.08 | 0.03 | 95 | 1021.0 |
| 20260508152014 | 7 | 49 | 0.0 | 4.8 | 0.00 | 0.08 | 0.03 | 95 | 1021.0 |
| 20260508151512 | 7 | 59 | 0.0 | 4.8 | 0.00 | 0.08 | 0.03 | 95 | 1021.2 |
| 20260508151013 | 7 | 133 | 0.0 | 3.2 | 0.00 | 0.08 | 0.03 | 96 | 1021.3 |
| 20260508150510 | 7 | 134 | 0.0 | 3.2 | 0.00 | 0.08 | 0.03 | 96 | 1021.2 |
| 20260508150032 | 7 | 138 | 1.6 | 3.2 | 0.00 | 0.08 | 0.03 | 96 | 1021.3 |
| 20260508145509 | 7 | 82 | 0.0 | 4.8 | 0.00 | 0.15 | 0.03 | 96 | 1021.3 |
| 20260508145010 | 7 | 81 | 1.6 | 4.8 | 0.00 | 0.15 | 0.03 | 96 | 1021.3 |
| 20260508144509 | 7 | 78 | 0.0 | 4.8 | 0.00 | 0.15 | 0.03 | 96 | 1021.3 |
| 20260508144010 | 7 | 78 | 0.0 | 3.2 | 0.00 | 0.15 | 0.03 | 96 | 1021.3 |
| 20260508143509 | 7 | 78 | 0.0 | 4.8 | 0.03 | 0.15 | 0.03 | 96 | 1021.3 |
| 20260508143011 | 7 | 124 | 1.6 | 4.8 | 0.03 | 0.15 | 0.03 | 96 | 1021.4 |
| 20260508142508 | 7 | 132 | 0.0 | 4.8 | 0.03 | 0.15 | 0.03 | 96 | 1021.3 |
| 20260508142007 | 7 | 81 | 1.6 | 6.4 | 0.03 | 0.15 | 0.03 | 96 | 1021.3 |
| 20260508141508 | 7 | 92 | 1.6 | 6.4 | 0.03 | 0.15 | 0.03 | 96 | 1021.2 |
| 20260508141006 | 7 | 306 | 1.6 | 4.8 | 0.03 | 0.15 | 0.03 | 97 | 1021.1 |
| 20260508140509 | 7 | 85 | 0.0 | 6.4 | 0.03 | 0.15 | 0.03 | 96 | 1021.2 |
| 20260508140011 | 7 | 307 | 1.6 | 6.4 | 0.03 | 0.15 | 0.03 | 96 | 1021.3 |
| 20260508135505 | 7 | 196 | 0.0 | 4.8 | 0.03 | 0.15 | 0.03 | 96 | 1021.2 |
| 20260508135006 | 7 | 84 | 0.0 | 8.0 | 0.03 | 0.15 | 0.03 | 96 | 1021.2 |
| 20260508134505 | 7 | 62 | 1.6 | 8.0 | 0.03 | 0.15 | 0.03 | 96 | 1021.2 |
| 20260508134008 | 7 | 126 | 1.6 | 6.4 | 0.00 | 0.13 | 0.00 | 95 | 1021.2 |
| 20260508133507 | 7 | 93 | 3.2 | 6.4 | 0.00 | 0.13 | 0.00 | 96 | 1021.2 |
| 20260508133008 | 7 | 94 | 0.0 | 6.4 | 0.00 | 0.13 | 0.00 | 96 | 1021.1 |
| 20260508132504 | 7 | 95 | 1.6 | 6.4 | 0.00 | 0.13 | 0.00 | 97 | 1021.1 |
| 20260508132003 | 7 | 68 | 0.0 | 6.4 | 0.00 | 0.13 | 0.00 | 98 | 1021.2 |
| 20260508131503 | 7 | 57 | 0.0 | 0.0 | 0.00 | 0.13 | 0.00 | 98 | 1021.2 |
| 20260508131005 | 7 | 57 | 0.0 | 4.8 | 0.00 | 0.13 | 0.00 | 97 | 1021.1 |
| 20260508130503 | 7 | 38 | 0.0 | 4.8 | 0.00 | 0.13 | 0.00 | 98 | 1021.2 |
| 20260508130003 | 7 | 82 | 0.0 | 1.6 | 0.00 | 0.13 | 0.00 | 97 | 1021.2 |
| 20260508125502 | 7 | 82 | 0.0 | 6.4 | 0.00 | 0.23 | 0.00 | 97 | 1021.2 |
| 20260508125003 | 7 | 74 | 3.2 | 6.4 | 0.00 | 0.23 | 0.00 | 97 | 1021.1 |
| 20260508124502 | 7 | 81 | 0.0 | 6.4 | 0.00 | 0.23 | 0.00 | 97 | 1021.1 |
| 20260508124002 | 7 | 75 | 0.0 | 4.8 | 0.00 | 0.23 | 0.00 | 97 | 1021.2 |
| 20260508123502 | 7 | 74 | 0.0 | 4.8 | 0.00 | 0.23 | 0.00 | 96 | 1021.3 |
| 20260508123001 | 7 | 72 | 0.0 | 6.4 | 0.00 | 0.23 | 0.00 | 96 | 1021.3 |
| 20260508122600 | 7 | 72 | 0.0 | 4.8 | 0.00 | 0.23 | 0.00 | 96 | 1021.2 |
| 20260508122059 | 7 | 66 | 1.6 | 4.8 | 0.00 | 0.23 | 0.00 | 97 | 1021.2 |
| 20260508121559 | 7 | 127 | 0.0 | 4.8 | 0.00 | 0.23 | 0.00 | 97 | 1021.1 |
| 20260508121058 | 7 | 103 | 0.0 | 4.8 | 0.00 | 0.23 | 0.00 | 97 | 1021.1 |
| 20260508120558 | 7 | 104 | 0.0 | 8.0 | 0.00 | 0.23 | 0.00 | 97 | 1021.1 |
| 20260508120101 | 7 | 58 | 1.6 | 8.0 | 0.00 | 0.23 | 0.00 | 97 | 1021.0 |
| 20260508115601 | 7 | 75 | 0.0 | 4.8 | 0.00 | 0.23 | 0.00 | 97 | 1020.9 |
| 20260508115057 | 7 | 94 | 1.6 | 6.4 | 0.00 | 0.23 | 0.00 | 97 | 1021.1 |
| 20260508114557 | 7 | 57 | 3.2 | 6.4 | 0.00 | 0.23 | 0.00 | 97 | 1021.0 |
| 20260508114057 | 7 | 105 | 1.6 | 4.8 | 0.00 | 0.23 | 0.00 | 96 | 1021.1 |
| 20260508113557 | 7 | 59 | 0.0 | 6.4 | 0.00 | 0.23 | 0.00 | 97 | 1021.0 |
| 20260508113058 | 7 | 77 | 0.0 | 4.8 | 0.00 | 0.23 | 0.00 | 97 | 1021.0 |
| 20260508112556 | 7 | 70 | 0.0 | 4.8 | 0.00 | 0.23 | 0.00 | 97 | 1021.0 |
| 20260508112057 | 7 | 81 | 0.0 | 1.6 | 0.00 | 0.23 | 0.00 | 97 | 1021.1 |
| 20260508111603 | 7 | 81 | 0.0 | 6.4 | 0.00 | 0.23 | 0.00 | 97 | 1021.1 |
| 20260508111056 | 7 | 80 | 1.6 | 8.0 | 0.00 | 0.23 | 0.00 | 96 | 1021.1 |
| 20260508110556 | 7 | 65 | 3.2 | 8.0 | 0.00 | 0.23 | 0.00 | 97 | 1021.1 |
| 20260508105555 | 7 | 265 | 1.6 | 3.2 | 0.00 | 0.23 | 0.00 | 97 | 1021.0 |
| 20260508105055 | 7 | 229 | 0.0 | 3.2 | 0.00 | 0.23 | 0.00 | 97 | 1021.1 |
| 20260508104555 | 7 | 75 | 0.0 | 6.4 | 0.00 | 0.23 | 0.00 | 97 | 1021.0 |
| 20260508104054 | 7 | 75 | 0.0 | 6.4 | 0.00 | 0.23 | 0.00 | 97 | 1021.0 |
| 20260508103553 | 6 | 70 | 0.0 | 6.4 | 0.00 | 0.23 | 0.00 | 97 | 1021.0 |
| 20260508103054 | 7 | 71 | 0.0 | 6.4 | 0.00 | 0.23 | 0.00 | 97 | 1021.0 |
| 20260508102551 | 7 | 56 | 0.0 | 6.4 | 0.00 | 0.23 | 0.00 | 98 | 1021.0 |
| 20260508102051 | 7 | 65 | 1.6 | 6.4 | 0.00 | 0.23 | 0.00 | 98 | 1020.9 |
| 20260508101553 | 7 | 106 | 1.6 | 4.8 | 0.00 | 0.23 | 0.00 | 98 | 1020.9 |
| 20260508101051 | 6 | 89 | 0.0 | 6.4 | 0.00 | 0.23 | 0.00 | 98 | 1020.9 |
| 20260508100549 | 6 | 72 | 1.6 | 6.4 | 0.00 | 0.23 | 0.00 | 98 | 1020.9 |
| 20260508100049 | 6 | 76 | 1.6 | 6.4 | 0.00 | 0.23 | 0.00 | 98 | 1021.0 |
| 20260508095551 | 6 | 70 | 1.6 | 6.4 | 0.00 | 0.25 | 0.00 | 98 | 1021.0 |
| 20260508095049 | 6 | 32 | 1.6 | 4.8 | 0.00 | 0.25 | 0.00 | 98 | 1020.8 |
| 20260508094550 | 6 | 75 | 0.0 | 4.8 | 0.00 | 0.25 | 0.00 | 98 | 1020.8 |
| 20260508094049 | 6 | 67 | 0.0 | 4.8 | 0.00 | 0.25 | 0.00 | 98 | 1020.9 |
| 20260508093551 | 6 | 103 | 0.0 | 4.8 | 0.00 | 0.25 | 0.00 | 98 | 1021.0 |
| 20260508093050 | 6 | 17 | 0.0 | 4.8 | 0.00 | 0.25 | 0.00 | 98 | 1020.8 |
| 20260508092548 | 6 | 204 | 1.6 | 6.4 | 0.00 | 0.25 | 0.00 | 98 | 1021.0 |
| 20260508092046 | 6 | 115 | 1.6 | 9.7 | 0.00 | 0.25 | 0.00 | 98 | 1020.8 |
| 20260508091559 | 6 | 93 | 0.0 | 9.7 | 0.00 | 0.25 | 0.00 | 99 | 1020.8 |
| 20260508091045 | 6 | 216 | 0.0 | 3.2 | 0.00 | 0.25 | 0.00 | 99 | 1020.8 |
| 20260508090545 | 6 | 85 | 0.0 | 1.6 | 0.00 | 0.25 | 0.00 | 99 | 1020.7 |
| 20260508090045 | 6 | 84 | 0.0 | 6.4 | 0.00 | 0.25 | 0.00 | 99 | 1020.7 |
| 20260508085544 | 6 | 74 | 1.6 | 6.4 | 0.00 | 0.25 | 0.00 | 99 | 1020.7 |
| 20260508085046 | 6 | 139 | 1.6 | 4.8 | 0.00 | 0.25 | 0.00 | 99 | 1020.6 |
| 20260508084550 | 6 | 86 | 0.0 | 6.4 | 0.00 | 0.25 | 0.00 | 99 | 1020.6 |
| 20260508084043 | 6 | 82 | 1.6 | 6.4 | 0.00 | 0.25 | 0.00 | 99 | 1020.5 |
| 20260508083542 | 6 | 86 | 0.0 | 4.8 | 0.00 | 0.25 | 0.00 | 99 | 1020.6 |
| 20260508083052 | 6 | 95 | 1.6 | 9.7 | 0.00 | 0.25 | 0.00 | 99 | 1020.4 |
| 20260508082541 | 6 | 63 | 1.6 | 9.7 | 0.00 | 0.25 | 0.00 | 99 | 1020.4 |
| 20260508082041 | 6 | 85 | 1.6 | 9.7 | 0.00 | 0.25 | 0.00 | 99 | 1020.4 |
| 20260508081546 | 6 | 90 | 1.6 | 6.4 | 0.00 | 0.25 | 0.00 | 99 | 1020.4 |
| 20260508081041 | 6 | 67 | 3.2 | 6.4 | 0.00 | 0.25 | 0.00 | 100 | 1020.5 |
| 20260508080541 | 6 | 85 | 0.0 | 6.4 | 0.00 | 0.25 | 0.00 | 100 | 1020.4 |
| 20260508080057 | 6 | 97 | 3.2 | 6.4 | 0.00 | 0.25 | 0.00 | 100 | 1020.3 |
| 20260508075539 | 6 | 99 | 1.6 | 6.4 | 0.00 | 0.36 | 0.00 | 100 | 1020.3 |
| 20260508075038 | 6 | 78 | 1.6 | 6.4 | 0.00 | 0.36 | 0.00 | 100 | 1020.2 |
| 20260508074638 | 6 | 86 | 1.6 | 9.7 | 0.00 | 0.36 | 0.00 | 100 | 1020.1 |
| 20260508074037 | 6 | 73 | 1.6 | 12.9 | 0.00 | 0.36 | 0.00 | 100 | 1020.1 |
| 20260508073537 | 6 | 76 | 3.2 | 14.5 | 0.00 | 0.36 | 0.00 | 100 | 1020.0 |
| 20260508073043 | 6 | 69 | 4.8 | 14.5 | 0.00 | 0.36 | 0.00 | 100 | 1019.9 |
| 20260508072534 | 6 | 100 | 3.2 | 8.0 | 0.00 | 0.36 | 0.00 | 100 | 1020.0 |
| 20260508072034 | 6 | 82 | 1.6 | 9.7 | 0.00 | 0.36 | 0.00 | 100 | 1019.9 |
| 20260508071534 | 6 | 74 | 0.0 | 6.4 | 0.00 | 0.36 | 0.00 | 100 | 1019.8 |
| 20260508071032 | 6 | 69 | 1.6 | 4.8 | 0.00 | 0.36 | 0.00 | 100 | 1019.8 |
| 20260508070531 | 6 | 61 | 0.0 | 4.8 | 0.00 | 0.36 | 0.00 | 100 | 1019.8 |
| 20260508070033 | 6 | 61 | 1.6 | 8.0 | 0.00 | 0.36 | 0.00 | 100 | 1019.6 |
| 20260508065534 | 6 | 31 | 0.0 | 9.7 | 0.00 | 0.41 | 0.00 | 100 | 1019.7 |
| 20260508065029 | 6 | 89 | 0.0 | 9.7 | 0.00 | 0.41 | 0.00 | 100 | 1019.6 |
| 20260508064540 | 5 | 127 | 0.0 | 9.7 | 0.00 | 0.41 | 0.00 | 100 | 1019.5 |
| 20260508064029 | 5 | 127 | 3.2 | 9.7 | 0.00 | 0.41 | 0.00 | 100 | 1019.5 |
| 20260508063528 | 5 | 140 | 1.6 | 9.7 | 0.00 | 0.41 | 0.00 | 100 | 1019.4 |
| 20260508063028 | 5 | 86 | 1.6 | 8.0 | 0.00 | 0.41 | 0.00 | 99 | 1019.4 |
| 20260508062526 | 5 | 74 | 3.2 | 8.0 | 0.00 | 0.41 | 0.00 | 100 | 1019.4 |
| 20260508062026 | 5 | 69 | 1.6 | 6.4 | 0.00 | 0.41 | 0.00 | 100 | 1019.4 |
| 20260508061527 | 5 | 76 | 1.6 | 6.4 | 0.00 | 0.41 | 0.00 | 99 | 1019.4 |
| 20260508061025 | 5 | 76 | 1.6 | 6.4 | 0.00 | 0.41 | 0.00 | 100 | 1019.3 |
| 20260508060524 | 5 | 97 | 1.6 | 6.4 | 0.00 | 0.41 | 0.00 | 99 | 1019.2 |
| 20260508060022 | 5 | 88 | 3.2 | 6.4 | 0.00 | 0.41 | 0.00 | 99 | 1019.1 |
| 20260508055524 | 5 | 158 | 0.0 | 6.4 | 0.00 | 0.43 | 0.00 | 99 | 1019.1 |
| 20260508055022 | 5 | 90 | 1.6 | 4.8 | 0.00 | 0.43 | 0.00 | 99 | 1019.1 |
| 20260508054537 | 5 | 277 | 0.0 | 9.7 | 0.00 | 0.43 | 0.00 | 99 | 1019.0 |
| 20260508054021 | 5 | 99 | 0.0 | 9.7 | 0.00 | 0.43 | 0.00 | 99 | 1018.9 |
| 20260508053521 | 5 | 61 | 1.6 | 8.0 | 0.00 | 0.43 | 0.00 | 99 | 1018.8 |
| 20260508053021 | 5 | 66 | 1.6 | 8.0 | 0.00 | 0.43 | 0.00 | 99 | 1018.9 |
| 20260508052520 | 5 | 121 | 1.6 | 6.4 | 0.00 | 0.43 | 0.00 | 99 | 1018.9 |
| 20260508052019 | 5 | 94 | 1.6 | 6.4 | 0.00 | 0.43 | 0.00 | 99 | 1019.0 |
| 20260508051520 | 5 | 102 | 1.6 | 6.4 | 0.00 | 0.43 | 0.00 | 99 | 1018.8 |
| 20260508051020 | 5 | 275 | 0.0 | 6.4 | 0.00 | 0.43 | 0.00 | 99 | 1019.0 |
| 20260508050518 | 5 | 93 | 1.6 | 6.4 | 0.00 | 0.43 | 0.00 | 99 | 1018.8 |
| 20260508050018 | 5 | 93 | 1.6 | 8.0 | 0.00 | 0.43 | 0.00 | 99 | 1018.7 |
| 20260508045518 | 5 | 64 | 1.6 | 8.0 | 0.00 | 0.43 | 0.00 | 99 | 1018.6 |
| 20260508045017 | 5 | 90 | 3.2 | 9.7 | 0.00 | 0.43 | 0.00 | 100 | 1018.6 |
| 20260508044517 | 5 | 82 | 1.6 | 4.8 | 0.00 | 0.43 | 0.00 | 100 | 1018.6 |
| 20260508044017 | 5 | 222 | 0.0 | 4.8 | 0.00 | 0.43 | 0.00 | 99 | 1018.5 |
| 20260508043515 | 5 | 225 | 0.0 | 3.2 | 0.00 | 0.43 | 0.00 | 99 | 1018.5 |
| 20260508043014 | 5 | 240 | 0.0 | 4.8 | 0.00 | 0.43 | 0.00 | 99 | 1018.5 |
| 20260508042513 | 5 | 227 | 0.0 | 4.8 | 0.00 | 0.43 | 0.00 | 99 | 1018.6 |
| 20260508042011 | 5 | 137 | 0.0 | 3.2 | 0.00 | 0.43 | 0.00 | 99 | 1018.5 |
| 20260508041511 | 5 | 86 | 0.0 | 0.0 | 0.00 | 0.43 | 0.00 | 99 | 1018.6 |
| 20260508041011 | 5 | 86 | 0.0 | 4.8 | 0.00 | 0.43 | 0.00 | 99 | 1018.6 |
| 20260508040511 | 5 | 86 | 0.0 | 4.8 | 0.00 | 0.43 | 0.00 | 99 | 1018.6 |
| 20260508040032 | 5 | 76 | 0.0 | 3.2 | 0.00 | 0.43 | 0.00 | 99 | 1018.7 |
| 20260508035508 | 5 | 75 | 0.0 | 6.4 | 0.00 | 0.56 | 0.00 | 99 | 1018.6 |
| 20260508035012 | 5 | 75 | 1.6 | 6.4 | 0.00 | 0.56 | 0.00 | 99 | 1018.6 |
| 20260508034507 | 5 | 72 | 0.0 | 4.8 | 0.00 | 0.56 | 0.00 | 99 | 1018.6 |
| 20260508034006 | 5 | 72 | 0.0 | 4.8 | 0.00 | 0.56 | 0.00 | 99 | 1018.5 |
| 20260508033505 | 5 | 97 | 1.6 | 4.8 | 0.00 | 0.56 | 0.00 | 99 | 1018.5 |
| 20260508033006 | 5 | 103 | 0.0 | 0.0 | 0.00 | 0.56 | 0.00 | 99 | 1018.4 |
| 20260508032504 | 5 | 96 | 0.0 | 3.2 | 0.00 | 0.56 | 0.00 | 99 | 1018.3 |
| 20260508032005 | 5 | 42 | 0.0 | 3.2 | 0.00 | 0.56 | 0.00 | 99 | 1018.3 |
| 20260508031512 | 5 | 43 | 0.0 | 3.2 | 0.00 | 0.56 | 0.00 | 99 | 1018.3 |
| 20260508031002 | 5 | 292 | 0.0 | 6.4 | 0.00 | 0.56 | 0.00 | 99 | 1018.2 |
| 20260508030504 | 5 | 42 | 0.0 | 6.4 | 0.00 | 0.56 | 0.00 | 99 | 1018.2 |
| 20260508030003 | 5 | 119 | 0.0 | 6.4 | 0.00 | 0.56 | 0.00 | 99 | 1018.2 |
| 20260508025503 | 5 | 75 | 0.0 | 6.4 | 0.00 | 0.69 | 0.00 | 99 | 1018.1 |
| 20260508025002 | 5 | 81 | 3.2 | 6.4 | 0.00 | 0.69 | 0.00 | 99 | 1018.2 |
| 20260508024501 | 5 | 108 | 0.0 | 3.2 | 0.00 | 0.69 | 0.00 | 99 | 1018.1 |
| 20260508024002 | 5 | 111 | 0.0 | 3.2 | 0.00 | 0.69 | 0.00 | 99 | 1018.1 |
| 20260508023601 | 5 | 110 | 0.0 | 3.2 | 0.00 | 0.69 | 0.00 | 99 | 1018.1 |
| 20260508023101 | 5 | 40 | 0.0 | 1.6 | 0.00 | 0.69 | 0.00 | 99 | 1018.2 |
| 20260508022559 | 5 | 40 | 0.0 | 3.2 | 0.00 | 0.69 | 0.00 | 99 | 1018.1 |
| 20260508022058 | 5 | 36 | 0.0 | 3.2 | 0.00 | 0.69 | 0.00 | 99 | 1018.2 |
| 20260508021558 | 5 | 344 | 0.0 | 3.2 | 0.00 | 0.69 | 0.00 | 99 | 1018.3 |
| 20260508021058 | 5 | 339 | 0.0 | 3.2 | 0.00 | 0.69 | 0.00 | 99 | 1018.2 |
| 20260508020558 | 5 | 338 | 0.0 | 1.6 | 0.00 | 0.69 | 0.00 | 99 | 1018.3 |
| 20260508020059 | 5 | 337 | 0.0 | 3.2 | 0.00 | 0.69 | 0.00 | 99 | 1018.2 |
| 20260508015557 | 5 | 336 | 0.0 | 6.4 | 0.00 | 0.71 | 0.00 | 99 | 1018.2 |
| 20260508015056 | 5 | 329 | 0.0 | 6.4 | 0.00 | 0.71 | 0.00 | 99 | 1018.1 |
| 20260508014556 | 5 | 153 | 0.0 | 3.2 | 0.00 | 0.71 | 0.00 | 99 | 1018.2 |
| 20260508014056 | 5 | 153 | 0.0 | 4.8 | 0.00 | 0.71 | 0.00 | 99 | 1018.1 |
| 20260508013557 | 5 | 71 | 0.0 | 6.4 | 0.00 | 0.71 | 0.00 | 99 | 1018.1 |
| 20260508013055 | 5 | 65 | 0.0 | 6.4 | 0.00 | 0.71 | 0.00 | 99 | 1018.0 |
| 20260508012554 | 5 | 98 | 1.6 | 6.4 | 0.00 | 0.71 | 0.00 | 99 | 1018.0 |
| 20260508012055 | 5 | 59 | 1.6 | 6.4 | 0.00 | 0.71 | 0.00 | 99 | 1018.0 |
| 20260508011553 | 5 | 85 | 0.0 | 9.7 | 0.00 | 0.71 | 0.00 | 99 | 1018.1 |
| 20260508011052 | 5 | 78 | 3.2 | 9.7 | 0.00 | 0.71 | 0.00 | 99 | 1017.9 |
| 20260508010552 | 5 | 124 | 0.0 | 3.2 | 0.00 | 0.71 | 0.00 | 99 | 1017.8 |
| 20260508010052 | 5 | 115 | 0.0 | 9.7 | 0.00 | 0.71 | 0.00 | 99 | 1017.8 |
| 20260508005551 | 5 | 88 | 1.6 | 9.7 | 0.00 | 0.89 | 0.00 | 99 | 1017.7 |
| 20260508005050 | 5 | 116 | 1.6 | 8.0 | 0.00 | 0.89 | 0.00 | 99 | 1017.7 |
| 20260508004553 | 5 | 327 | 0.0 | 8.0 | 0.00 | 0.89 | 0.00 | 99 | 1017.7 |
| 20260508004050 | 5 | 75 | 0.0 | 6.4 | 0.00 | 0.89 | 0.00 | 99 | 1017.7 |
| 20260508003554 | 5 | 103 | 0.0 | 4.8 | 0.00 | 0.89 | 0.00 | 99 | 1017.7 |
| 20260508003051 | 5 | 103 | 0.0 | 4.8 | 0.00 | 0.89 | 0.00 | 99 | 1017.7 |
| 20260508002547 | 5 | 103 | 0.0 | 14.5 | 0.00 | 0.89 | 0.00 | 99 | 1017.7 |
| 20260508002048 | 5 | 72 | 1.6 | 14.5 | 0.00 | 0.89 | 0.00 | 99 | 1017.8 |
| 20260508001547 | 5 | 102 | 1.6 | 4.8 | 0.00 | 0.89 | 0.00 | 99 | 1017.8 |
| 20260508001046 | 5 | 72 | 0.0 | 4.8 | 0.00 | 0.89 | 0.00 | 99 | 1017.8 |
| 20260508000546 | 5 | 71 | 1.6 | 4.8 | 0.00 | 0.89 | 0.00 | 99 | 1017.7 |
| 20260508000050 | 5 | 98 | 0.0 | 4.8 | 0.00 | 0.89 | 0.00 | 99 | 1017.8 |
| 20260507235550 | 5 | 80 | 0.0 | 4.8 | 0.00 | 1.17 | 0.00 | 99 | 1017.9 |
| 20260507235046 | 5 | 62 | 1.6 | 8.0 | 0.00 | 1.17 | 0.00 | 99 | 1017.8 |
| 20260507234553 | 5 | 61 | 0.0 | 8.0 | 0.00 | 1.17 | 0.00 | 99 | 1017.9 |
| 20260507234045 | 5 | 104 | 0.0 | 4.8 | 0.00 | 1.17 | 0.00 | 99 | 1017.8 |
| 20260507233545 | 5 | 69 | 0.0 | 8.0 | 0.00 | 1.17 | 0.00 | 99 | 1017.8 |
| 20260507233108 | 5 | 41 | 0.0 | 9.7 | 0.00 | 1.17 | 0.00 | 99 | 1017.9 |
| 20260507232543 | 5 | 289 | 3.2 | 9.7 | 0.00 | 1.17 | 0.00 | 99 | 1017.7 |
| 20260507232047 | 5 | 90 | 0.0 | 6.4 | 0.00 | 1.17 | 0.00 | 99 | 1017.7 |
| 20260507231542 | 5 | 70 | 0.0 | 4.8 | 0.00 | 1.17 | 0.00 | 99 | 1017.8 |
| 20260507231042 | 5 | 81 | 0.0 | 8.0 | 0.00 | 1.17 | 0.00 | 99 | 1017.8 |
| 20260507230541 | 5 | 63 | 3.2 | 8.0 | 0.00 | 1.17 | 0.00 | 99 | 1017.8 |
| 20260507230046 | 5 | 63 | 3.2 | 8.0 | 0.00 | 1.17 | 0.00 | 99 | 1017.7 |
| 20260507225540 | 6 | 98 | 1.6 | 8.0 | 0.00 | 1.24 | 0.00 | 99 | 1017.9 |
| 20260507225041 | 6 | 140 | 1.6 | 4.8 | 0.00 | 1.24 | 0.00 | 99 | 1017.8 |
| 20260507224540 | 6 | 224 | 0.0 | 3.2 | 0.00 | 1.24 | 0.00 | 99 | 1017.7 |
| 20260507224143 | 6 | 225 | 0.0 | 3.2 | 0.00 | 1.24 | 0.00 | 99 | 1017.8 |
| 20260507223540 | 6 | 219 | 0.0 | 11.3 | 0.00 | 1.24 | 0.00 | 99 | 1017.7 |
| 20260507223054 | 6 | 80 | 3.2 | 11.3 | 0.00 | 1.24 | 0.00 | 99 | 1017.8 |
| 20260507222540 | 6 | 65 | 1.6 | 9.7 | 0.00 | 1.24 | 0.00 | 99 | 1017.7 |
| 20260507222038 | 6 | 78 | 1.6 | 9.7 | 0.00 | 1.24 | 0.00 | 99 | 1017.7 |
| 20260507221542 | 6 | 68 | 1.6 | 6.4 | 0.00 | 1.24 | 0.00 | 99 | 1017.8 |
| 20260507221037 | 6 | 76 | 1.6 | 6.4 | 0.00 | 1.24 | 0.00 | 99 | 1017.6 |
| 20260507220537 | 6 | 88 | 0.0 | 6.4 | 0.00 | 1.24 | 0.00 | 99 | 1017.7 |
| 20260507220038 | 6 | 79 | 1.6 | 8.0 | 0.00 | 1.24 | 0.00 | 99 | 1017.7 |
| 20260507215534 | 6 | 76 | 1.6 | 8.0 | 0.00 | 1.24 | 1.24 | 99 | 1017.6 |
| 20260507215034 | 6 | 56 | 1.6 | 6.4 | 0.00 | 1.24 | 1.24 | 99 | 1017.6 |
| 20260507214533 | 6 | 99 | 0.0 | 6.4 | 0.00 | 1.24 | 1.24 | 99 | 1017.6 |
| 20260507214035 | 6 | 88 | 0.0 | 8.0 | 0.00 | 1.24 | 1.24 | 99 | 1017.7 |
| 20260507213535 | 6 | 46 | 0.0 | 9.7 | 0.00 | 1.24 | 1.24 | 99 | 1017.7 |
| 20260507213034 | 6 | 63 | 1.6 | 9.7 | 0.00 | 1.24 | 1.24 | 99 | 1017.6 |
| 20260507212531 | 6 | 105 | 1.6 | 14.5 | 0.00 | 1.24 | 1.24 | 99 | 1017.5 |
| 20260507212032 | 6 | 90 | 3.2 | 14.5 | 0.00 | 1.24 | 1.24 | 99 | 1017.5 |
| 20260507211536 | 6 | 77 | 0.0 | 6.4 | 0.00 | 1.24 | 1.24 | 99 | 1017.4 |
| 20260507211028 | 6 | 53 | 1.6 | 9.7 | 0.00 | 1.24 | 1.24 | 99 | 1017.3 |
| 20260507210528 | 6 | 144 | 1.6 | 9.7 | 0.00 | 1.24 | 1.24 | 99 | 1017.5 |
| 20260507210031 | 6 | 99 | 0.0 | 6.4 | 0.00 | 1.24 | 1.24 | 99 | 1017.4 |
| 20260507205527 | 6 | 86 | 0.0 | 6.4 | 0.00 | 1.24 | 1.24 | 99 | 1017.3 |
| 20260507205026 | 6 | 79 | 1.6 | 9.7 | 0.00 | 1.24 | 1.24 | 99 | 1017.4 |
| 20260507204526 | 6 | 103 | 0.0 | 4.8 | 0.00 | 1.24 | 1.24 | 99 | 1017.3 |
| 20260507204027 | 6 | 136 | 0.0 | 4.8 | 0.00 | 1.24 | 1.24 | 99 | 1017.3 |
| 20260507203525 | 6 | 80 | 0.0 | 8.0 | 0.00 | 1.24 | 1.24 | 99 | 1017.3 |
| 20260507203026 | 6 | 52 | 0.0 | 8.0 | 0.00 | 1.24 | 1.24 | 99 | 1017.2 |
| 20260507202523 | 6 | 74 | 1.6 | 6.4 | 0.00 | 1.24 | 1.24 | 99 | 1017.1 |
| 20260507202026 | 6 | 79 | 3.2 | 6.4 | 0.00 | 1.24 | 1.24 | 99 | 1017.1 |
| 20260507201522 | 6 | 51 | 0.0 | 4.8 | 0.00 | 1.24 | 1.24 | 99 | 1017.1 |
| 20260507201022 | 6 | 95 | 1.6 | 9.7 | 0.00 | 1.24 | 1.24 | 99 | 1016.9 |
| 20260507200521 | 6 | 92 | 1.6 | 9.7 | 0.00 | 1.24 | 1.24 | 99 | 1016.9 |
| 20260507200022 | 6 | 113 | 1.6 | 12.9 | 0.00 | 1.24 | 1.24 | 99 | 1016.9 |
| 20260507195522 | 6 | 80 | 1.6 | 4.8 | 0.00 | 1.24 | 1.24 | 99 | 1016.8 |
| 20260507195020 | 6 | 81 | 0.0 | 11.3 | 0.00 | 1.24 | 1.24 | 99 | 1016.6 |
| 20260507194531 | 6 | 71 | 4.8 | 14.5 | 0.00 | 1.24 | 1.24 | 99 | 1016.6 |
| 20260507194018 | 6 | 315 | 1.6 | 14.5 | 0.00 | 1.24 | 1.24 | 99 | 1016.5 |
| 20260507193519 | 6 | 117 | 0.0 | 9.7 | 0.03 | 1.24 | 1.24 | 99 | 1016.5 |
| 20260507193018 | 6 | 128 | 1.6 | 9.7 | 0.03 | 1.24 | 1.24 | 99 | 1016.5 |
| 20260507192517 | 6 | 82 | 1.6 | 9.7 | 0.03 | 1.24 | 1.24 | 99 | 1016.3 |
| 20260507192015 | 6 | 59 | 1.6 | 8.0 | 0.03 | 1.24 | 1.24 | 99 | 1016.3 |
| 20260507191514 | 6 | 98 | 3.2 | 9.7 | 0.03 | 1.24 | 1.24 | 99 | 1016.2 |
| 20260507191018 | 6 | 110 | 1.6 | 9.7 | 0.03 | 1.24 | 1.24 | 99 | 1016.1 |
| 20260507190513 | 6 | 86 | 1.6 | 9.7 | 0.03 | 1.24 | 1.24 | 99 | 1016.1 |
| 20260507190018 | 6 | 49 | 3.2 | 8.0 | 0.03 | 1.24 | 1.24 | 99 | 1016.0 |
| 20260507185514 | 6 | 87 | 0.0 | 8.0 | 0.03 | 1.24 | 1.24 | 99 | 1015.9 |
| 20260507185013 | 6 | 67 | 0.0 | 9.7 | 0.03 | 1.24 | 1.24 | 99 | 1015.8 |
| 20260507184510 | 6 | 119 | 1.6 | 11.3 | 0.03 | 1.24 | 1.24 | 99 | 1015.7 |
| 20260507184011 | 6 | 110 | 1.6 | 11.3 | 0.03 | 1.24 | 1.24 | 99 | 1015.7 |
| 20260507183509 | 6 | 62 | 1.6 | 8.0 | 0.00 | 1.22 | 1.22 | 98 | 1015.6 |
| 20260507183013 | 6 | 73 | 1.6 | 9.7 | 0.00 | 1.22 | 1.22 | 98 | 1015.5 |
| 20260507182508 | 7 | 91 | 1.6 | 9.7 | 0.00 | 1.22 | 1.22 | 99 | 1015.5 |
| 20260507182009 | 7 | 109 | 3.2 | 9.7 | 0.00 | 1.22 | 1.22 | 99 | 1015.5 |
| 20260507181506 | 7 | 134 | 1.6 | 4.8 | 0.00 | 1.22 | 1.22 | 99 | 1015.3 |
| 20260507181006 | 7 | 137 | 0.0 | 4.8 | 0.03 | 1.22 | 1.22 | 99 | 1015.2 |
| 20260507180505 | 7 | 163 | 1.6 | 12.9 | 0.03 | 1.22 | 1.22 | 98 | 1015.3 |
| 20260507180005 | 7 | 123 | 1.6 | 12.9 | 0.03 | 1.22 | 1.22 | 98 | 1015.2 |
| 20260507175504 | 7 | 243 | 0.0 | 6.4 | 0.03 | 1.22 | 1.22 | 98 | 1015.2 |
| 20260507175004 | 7 | 74 | 0.0 | 8.0 | 0.03 | 1.22 | 1.22 | 98 | 1015.3 |
| 20260507174509 | 7 | 76 | 0.0 | 8.0 | 0.03 | 1.22 | 1.22 | 98 | 1015.2 |
| 20260507174001 | 7 | 113 | 1.6 | 4.8 | 0.05 | 1.22 | 1.22 | 99 | 1015.3 |
| 20260507173503 | 7 | 82 | 0.0 | 6.4 | 0.05 | 1.22 | 1.22 | 98 | 1015.2 |
| 20260507173118 | 7 | 82 | 1.6 | 6.4 | 0.05 | 1.22 | 1.22 | 98 | 1015.1 |
| 20260507172559 | 7 | 120 | 0.0 | 9.7 | 0.05 | 1.22 | 1.22 | 98 | 1015.0 |
| 20260507172058 | 7 | 159 | 0.0 | 4.8 | 0.05 | 1.22 | 1.22 | 98 | 1015.0 |
| 20260507171557 | 7 | 151 | 0.0 | 6.4 | 0.05 | 1.22 | 1.22 | 98 | 1014.8 |
| 20260507171057 | 7 | 77 | 1.6 | 16.1 | 0.03 | 1.19 | 1.19 | 98 | 1014.7 |
| 20260507170556 | 7 | 98 | 1.6 | 16.1 | 0.03 | 1.19 | 1.19 | 98 | 1014.7 |
| 20260507170058 | 7 | 160 | 0.0 | 8.0 | 0.03 | 1.19 | 1.19 | 98 | 1014.7 |
| 20260507165555 | 7 | 91 | 0.0 | 8.0 | 0.03 | 1.19 | 1.19 | 98 | 1014.7 |
| 20260507165055 | 7 | 90 | 1.6 | 9.7 | 0.03 | 1.19 | 1.19 | 98 | 1014.6 |
| 20260507164628 | 7 | 94 | 0.0 | 6.4 | 0.03 | 1.19 | 1.19 | 98 | 1014.6 |
| 20260507164054 | 7 | 11 | 1.6 | 6.4 | 0.00 | 1.17 | 1.17 | 98 | 1014.6 |
| 20260507163552 | 7 | 90 | 1.6 | 6.4 | 0.00 | 1.17 | 1.17 | 98 | 1014.5 |
| 20260507163055 | 7 | 71 | 0.0 | 6.4 | 0.00 | 1.17 | 1.17 | 98 | 1014.4 |
| 20260507162551 | 7 | 75 | 0.0 | 4.8 | 0.00 | 1.17 | 1.17 | 98 | 1014.5 |
| 20260507162052 | 7 | 63 | 0.0 | 9.7 | 0.00 | 1.17 | 1.17 | 98 | 1014.5 |
| 20260507161556 | 7 | 88 | 1.6 | 8.0 | 0.00 | 1.17 | 1.17 | 98 | 1014.5 |
| 20260507161051 | 7 | 71 | 0.0 | 12.9 | 0.00 | 1.17 | 1.17 | 98 | 1014.3 |
| 20260507160548 | 8 | 52 | 1.6 | 12.9 | 0.00 | 1.17 | 1.17 | 98 | 1014.3 |
| 20260507160048 | 8 | 70 | 1.6 | 8.0 | 0.00 | 1.17 | 1.17 | 98 | 1014.3 |
| 20260507155547 | 8 | 94 | 1.6 | 11.3 | 0.00 | 1.17 | 1.17 | 98 | 1014.3 |
| 20260507155048 | 8 | 5 | 1.6 | 11.3 | 0.00 | 1.17 | 1.17 | 98 | 1014.5 |
| 20260507154548 | 8 | 95 | 3.2 | 9.7 | 0.00 | 1.17 | 1.17 | 98 | 1014.4 |
| 20260507154046 | 8 | 71 | 0.0 | 9.7 | 0.00 | 1.17 | 1.17 | 98 | 1014.3 |
| 20260507153549 | 8 | 101 | 0.0 | 8.0 | 0.03 | 1.17 | 1.17 | 98 | 1014.3 |